TimeHST,TemperatureF,Dew PointF,Humidity,Sea Level PressureIn,VisibilityMPH,Wind Direction,Wind SpeedMPH,Gust SpeedMPH,PrecipitationIn,Events,Conditions,WindDirDegrees,DateUTC
12:53 AM,-9999,-9999,N/A,30.02,10.0,Calm,Calm,-,N/A,,Partly Cloudy,0,2013-01-23 10:53:00
1:53 AM,-9999,-9999,N/A,30.00,10.0,Calm,Calm,-,N/A,,Clear,0,2013-01-23 11:53:00
2:53 AM,-9999,-9999,N/A,29.98,10.0,Calm,Calm,-,N/A,,Clear,0,2013-01-23 12:53:00
3:53 AM,-9999,-9999,N/A,29.98,10.0,ENE,6.9,-,N/A,,Clear,70,2013-01-23 13:53:00
4:53 AM,-9999,-9999,N/A,29.98,10.0,NE,3.5,-,N/A,,Clear,40,2013-01-23 14:53:00
5:53 AM,66.2,59.0,78,29.99,10.0,Calm,Calm,-,N/A,,Clear,0,2013-01-23 15:53:00
6:16 AM,68.0,59.0,73,30.00,10.0,Calm,Calm,-,N/A,,Partly Cloudy,0,2013-01-23 16:16:00
6:53 AM,68.0,59.0,73,30.01,10.0,ESE,4.6,-,N/A,,Clear,120,2013-01-23 16:53:00
7:53 AM,68.0,60.8,78,30.02,10.0,Calm,Calm,-,N/A,,Clear,0,2013-01-23 17:53:00
7:56 AM,69.8,60.8,73,30.02,10.0,Calm,Calm,-,N/A,,Clear,0,2013-01-23 17:56:00
8:53 AM,69.8,61.0,73,30.03,10.0,Calm,Calm,-,N/A,,Clear,0,2013-01-23 18:53:00
8:54 AM,73.4,62.6,69,30.03,10.0,Calm,Calm,-,N/A,,Clear,0,2013-01-23 18:54:00
9:53 AM,73.4,62.8,69,30.04,10.0,SSW,5.8,-,N/A,,Clear,210,2013-01-23 19:53:00
9:54 AM,77.0,62.6,61,30.03,10.0,SSW,5.8,-,N/A,,Clear,210,2013-01-23 19:54:00
10:53 AM,77.0,62.8,61,30.04,10.0,SSW,8.1,-,N/A,,Clear,200,2013-01-23 20:53:00
11:53 AM,78.8,62.1,56,30.02,10.0,SSW,10.4,-,N/A,,Clear,200,2013-01-23 21:53:00
12:53 PM,-9999,-9999,N/A,30.01,10.0,SSW,10.4,-,N/A,,Mostly Cloudy,200,2013-01-23 22:53:00
1:53 PM,78.8,62.1,56,29.98,10.0,SW,8.1,-,N/A,,Overcast,230,2013-01-23 23:53:00
2:53 PM,-9999,-9999,N/A,29.99,10.0,SW,8.1,-,N/A,,Overcast,230,2013-01-24 00:53:00
3:53 PM,77.0,63.0,62,29.98,10.0,WSW,6.9,-,N/A,,Overcast,240,2013-01-24 01:53:00
4:53 PM,77.0,63.0,62,29.99,10.0,West,4.6,-,N/A,,Overcast,260,2013-01-24 02:53:00
5:53 PM,75.9,63.0,64,30.01,10.0,Calm,Calm,-,N/A,,Overcast,0,2013-01-24 03:53:00
6:53 PM,75.9,63.0,64,30.02,10.0,Calm,Calm,-,N/A,,Overcast,0,2013-01-24 04:53:00
7:53 PM,75.9,64.0,67,30.03,10.0,NW,4.6,-,N/A,,Overcast,310,2013-01-24 05:53:00
8:53 PM,75.0,64.0,69,30.04,10.0,North,4.6,-,N/A,,Mostly Cloudy,10,2013-01-24 06:53:00
9:53 PM,73.9,61.0,64,30.04,10.0,Calm,Calm,-,N/A,,Clear,0,2013-01-24 07:53:00
10:53 PM,73.0,60.1,64,30.04,10.0,SE,4.6,-,N/A,,Mostly Cloudy,130,2013-01-24 08:53:00
11:53 PM,73.0,60.1,64,30.03,10.0,Calm,Calm,-,N/A,,Mostly Cloudy,0,2013-01-24 09:53:00